Location: 5810 Zion Rd, Cleves, OH 45002, USA
(39.1922°N, 84.7113°W)
Time: 06:44:51
(UTC-05:00)

CAS-4A - Visible Passes

Search period start: 21 January 2020 00:00
Search period end: 31 January 2020 00:00
Orbit: 529 x 544 km, 43.0° (Epoch: 21 January)

Date Brightness Start Highest point End Pass type
(mag) Time Alt. Az. Time Alt. Az. Time Alt. Az.
21 Jan ? 05:34:16 36° NE 05:34:16 36° NE 05:36:54 10° ENE visible
21 Jan ? 07:09:37 12° WNW 07:13:21 51° N 07:17:21 10° E visible
22 Jan ? 05:24:31 28° NE 05:24:31 28° NE 05:26:40 10° ENE visible
22 Jan ? 06:59:52 15° WNW 07:03:10 55° N 07:07:11 10° E visible
23 Jan ? 05:14:44 23° ENE 05:14:44 23° ENE 05:16:26 10° ENE visible
23 Jan ? 06:50:04 18° WNW 06:52:57 60° NNE 06:56:59 10° E visible
24 Jan ? 05:04:56 19° ENE 05:04:56 19° ENE 05:06:13 10° ENE visible
24 Jan ? 06:40:17 23° WNW 06:42:43 67° NNE 06:46:47 10° E visible
25 Jan ? 04:55:10 15° ENE 04:55:10 15° ENE 04:56:01 10° ENE visible
25 Jan ? 06:30:31 30° WNW 06:32:28 76° NNE 06:36:34 10° ESE visible
26 Jan ? 04:45:24 12° ENE 04:45:24 12° ENE 04:45:49 10° ENE visible
26 Jan ? 06:20:45 39° WNW 06:22:13 88° NNE 06:26:20 10° ESE visible
27 Jan ? 06:11:02 52° W 06:11:58 78° SSW 06:16:03 10° ESE visible
28 Jan ? 06:01:22 62° SW 06:01:41 65° SSW 06:05:44 10° SE visible
29 Jan ? 05:51:46 50° S 05:51:46 50° S 05:55:22 10° SE visible
30 Jan ? 05:42:14 33° S 05:42:14 33° S 05:44:57 10° SE visible
